Vertical_Velocity
-1 -1 -2 -2 -3 -2 -2 -2 -2 -2 -2 -2 -1 -1 -1 -1 -1 -1 -1 -2 -1 -1 -1 -0 -0 -0 -1 -1 -1 -1 -1 -1 -1 -1 -1 -1 -0 -0 -0 -0 -0 0 0 0 -0 -0 0 0 -0 -0 -1 -1 -0 -0 -1 -1 -1 -1 -1 -1 -1 -1 -1 -1 -1 -1 -1 -1 -1 -1 -1 -1 -1 -1 -1 -1 -1 -1 -1 -1 -1 -1 -1 -1 -1 -1 -1 -1 -1 -1 -1 -1 -1 -1 -1 -2 -1 0 0 0 -0 -1 -1
-2 -2 -3 -3 -2 -2 -2 -2 -2 -2 -2 -2 -2 -2 -2 -2 -2 -2 -2 -1 -1 -1 -1 -1 -0 -1 -1 -1 -1 -1 -1 -1 -1 -1 -1 -0 -0 -0 -0 -0 0 0 0 0 -0 -0 0 0 -0 -1 -1 -0 -0 -0 -0 -1 -1 -1 -1 -1 -1 -1 -1 -1 -1 -1 -1 -1 -1 -1 -1 -1 -1 -1 -1 -2 -1 -1 -1 -1 -1 -1 -0 -0 -1 -1 -1 -2 -1 -1 -1 -1 -1 -2 -0 -3 -2 0 0 0 0 -0 -0
-2 -2 -2 -2 -2 -2 -2 -2 -2 -2 -2 -2 -2 -2 -2 -2 -2 -2 -2 -2 -1 -1 -1 -1 -1 -1 -1 -1 -1 -1 -1 -1 -1 -1 -1 -1 -0 -0 -0 -0 -0 -0 0 -0 -0 -0 0 0 0 -0 -1 -0 -0 -0 -0 -1 -1 -1 -1 -1 -1 -1 -0 -1 -1 -1 -1 -1 -1 -1 -1 -1 -2 -1 -1 -1 -1 -1 -1 -0 -0 -0 -1 -1 -1 -1 -1 -1 -1 -2 -2 -2 -2 -2 -2 -1 -1 1 1 1 -0 -1 -1
-2 -2 -2 -2 -2 -2 -2 -2 -2 -2 -2 -2 -2 -2 -2 -2 -2 -2 -2 -2 -1 -1 -1 -1 -1 -1 -1 -1 -1 -1 -1 -1 -1 -1 -1 -1 -0 -0 -0 -0 -0 -0 -0 -0 -1 -1 -1 -0 -0 -0 -1 -1 -1 -1 -0 -0 -0 -0 -0 -0 -1 -1 -1 -1 -1 -1 -1 -1 -1 -1 -1 -1 -1 -1 -1 -1 -2 -2 -1 -1 1 1 -1 -1 -1 -1 -1 -1 -2 -3 -4 -2 -1 -1 -1 -0 1 2 2 1 -0 -1 -1
-2 -2 -2 -2 -2 -2 -2 -2 -1 -1 -2 -2 -2 -2 -2 -2 -2 -2 -2 -2 -1 -1 -1 -1 -1 -1 -1 -1 -1 -1 -1 -1 -1 -1 -1 -1 -1 -1 -1 -1 -1 -1 -1 -1 -1 -1 -1 -1 -1 -1 -1 -1 -1 -1 -0 -0 -0 -0 -0 -0 -1 -1 -1 -1 -1 -1 -2 -2 -1 -1 -1 -1 -1 -1 -1 -1 -1 -2 -2 -1 -0 1 -1 -1 -1 -1 -2 -1 -2 -2 -2 -1 -1 -1 -1 -0 0 1 1 1 1 -0 -1
-2 -2 -2 -2 -2 -2 -2 -1 -1 -1 -2 -2 -2 -3 -3 -3 -2 -2 -2 -2 -2 -1 -1 -1 -1 -1 -1 -1 -1 -1 -1 -1 -1 -1 -1 -1 -1 -1 -1 -1 -1 -1 -1 -1 -1 -1 -1 -1 -1 -1 -1 -1 -1 -1 -1 -1 -1 -1 -1 -1 -1 -1 -1 -1 -1 -1 -1 -2 -2 -1 -1 -1 -2 -2 -1 -1 -1 -1 -2 -1 -1 -1 -1 -1 -1 -1 -2 -2 -2 -1 -1 -1 -1 -2 -2 -2 -1 -1 -1 -0 0 0 -0
-3 -2 -2 -2 -2 -1 -1 -1 -1 -1 -2 -2 -2 -3 -3 -2 -2 -2 -2 -2 -1 -1 -1 -1 -1 -1 -1 -1 -1 -1 -1 -1 -1 -1 -1 -1 -1 -1 -1 -1 -1 -1 -1 -2 -1 -1 -1 -2 -2 -2 -2 -2 -2 -2 -2 -2 -2 -2 -1 -1 -1 -1 -1 -2 -1 -1 -1 -1 -1 -1 -1 -1 -2 -2 -2 -1 -1 -1 -1 -1 -1 -1 -1 -1 -1 -1 -2 -2 -2 -2 -2 -1 -1 -1 -2 -3 -3 -2 -2 -1 -1 -1 -1
-3 -3 -3 -2 -2 -1 -1 -1 -1 -1 -2 -2 -2 -2 -2 -2 -2 -2 -2 -1 -1 -1 -1 -1 -1 -1 -1 -1 -1 -1 -1 -1 -1 -1 -1 -1 -1 -1 -1 -2 -2 -2 -2 -2 -2 -2 -1 -2 -2 -2 -2 -2 -2 -2 -2 -2 -2 -2 -2 -2 -1 -1 -1 -1 -1 -1 -1 -1 -1 -1 -1 -1 -1 -1 -2 -1 -1 -1 -1 -1 -1 -1 -1 -1 -1 -1 -1 -1 -2 -2 -3 -3 -2 -1 -1 -1 -2 -2 -2 -2 -2 -1 -1
-3 -3 -3 -3 -2 -2 -2 -2 -2 -2 -2 -2 -2 -2 -2 -2 -2 -2 -2 -1 -1 -1 -1 -1 -1 -1 -1 -1 -1 -1 -1 -1 -1 -1 -1 -1 -1 -1 -2 -2 -2 -2 -2 -2 -2 -2 -1 -2 -2 -2 -2 -2 -2 -2 -2 -2 -2 -2 -1 -1 -1 -1 -1 -1 -1 -1 -1 -1 -1 -1 -1 -1 -1 -1 -1 -1 -1 -1 -1 -1 -1 -1 -1 -1 -1 -1 -1 -1 -1 -1 -1 -2 -2 -2 -1 -1 -1 -2 -2 -2 -2 -2 -1
-2 -3 -3 -3 -3 -2 -2 -2 -2 -2 -2 -1 -1 -1 -1 -1 -1 -2 -2 -2 -2 -2 -2 -2 -2 -1 -1 -1 -1 -1 -1 -1 -1 -1 -1 -1 -1 -1 -2 -1 -1 -1 -1 -1 -1 -1 -1 -1 -1 -1 -1 -1 -1 -1 -1 -1 -1 -1 -1 -1 -1 -1 -1 -1 -1 -1 -1 -1 -1 -1 -1 -1 -1 -1 -1 -1 -1 -1 -1 -1 -1 -1 -1 -1 -1 -1 -1 -1 -1 -0 -0 -1 -1 -2 -1 -1 -1 -1 -1 -1 -1 -1 -1
-2 -2 -2 -2 -2 -2 -3 -2 -2 -2 -2 -1 -1 -1 -1 -1 -1 -1 -1 -2 -2 -1 -1 -2 -2 -2 -2 -2 -2 -2 -2 -2 -2 -2 -2 -2 -1 -1 -1 -1 -1 -1 -1 -1 -1 -1 -1 -1 -1 -1 -1 -1 -1 -1 -1 -1 -1 -1 -1 -1 -1 -1 -0 -0 -0 -0 -1 -1 -1 -1 -0 -0 -1 -1 -1 -1 -1 -1 -1 -1 -1 -1 -0 -1 -1 -1 -1 -1 -1 -1 -1 -1 -1 -1 -1 -1 -1 -1 -1 -1 -1 -1 -1
-2 -2 -2 -2 -2 -2 -2 -2 -2 -2 -2 -1 -1 -1 -0 -0 -0 -1 -1 -1 -1 -1 -1 -1 -1 -1 -2 -2 -2 -2 -2 -2 -2 -2 -2 -2 -1 -1 -1 -1 -1 -1 -1 -1 -1 -1 -1 -1 -1 -1 -1 -1 -1 -1 -1 -1 -1 -1 -1 -1 -1 -0 -0 -0 0 0 -0 -1 -1 -0 -0 -0 -1 -1 -1 -1 -1 -1 -1 -1 -1 -1 -1 -1 -0 -0 -0 -1 -1 -1 -1 -1 -1 -1 -1 -1 -1 -1 -1 -1 -1 -1 -1
-2 -2 -2 -2 -2 -2 -2 -2 -2 -2 -2 -1 -1 -1 -1 -0 -0 -0 -0 -0 0 0 0 -0 -1 -1 -1 -1 -1 -2 -2 -2 -2 -2 -2 -2 -2 -1 -1 -1 -1 -1 -1 -1 -1 -1 -1 -1 -1 -1 -1 -1 -1 -1 -0 -0 -0 -0 -0 -1 -1 -1 -0 0 0 0 -0 -1 -1 -0 -1 -1 -1 -1 -1 -1 -0 -1 -1 -0 -0 -1 -1 -1 -1 -0 -1 -1 -1 -1 -1 -1 -1 -1 -1 -1 -1 -1 -1 -1 -1 -1 -1
-2 -2 -2 -2 -2 -2 -2 -2 -2 -2 -2 -1 -1 -1 -1 -1 -1 -1 -1 -0 0 0 0 0 0 -0 -0 -1 -1 -1 -1 -1 -1 -1 -1 -1 -1 -1 -1 -1 -1 -1 -1 -1 -1 -1 -1 -1 -1 -1 -1 -1 -1 -1 -0 -0 -0 -0 -1 -1 -1 -1 -0 -0 0 0 -1 -1 -1 -1 -1 -1 -1 -1 -1 -0 -0 -0 -1 -1 -1 -1 -1 -1 -1 -1 -1 -1 -1 -1 -1 -1 -1 -1 -1 -1 -1 -1 -1 -1 -1 -1 -1
-2 -2 -2 -2 -2 -2 -2 -2 -1 -1 -2 -1 -1 -1 -1 -1 -1 -1 -1 -1 -1 -0 0 0 0 0 0 -0 -0 -1 -1 -1 -1 -1 -1 -1 -1 -1 -1 -1 -1 -1 -1 -1 -1 -1 -1 -1 -1 -1 -1 -1 -1 -1 -1 -1 -0 -1 -1 -1 -1 -1 -1 -0 -0 -0 -1 -1 -1 -1 -1 -1 -1 -1 -0 -0 -0 -0 -1 -1 -1 -1 -1 -1 -1 -1 -1 -1 -1 -1 -1 -1 -1 -1 -1 -1 -1 -1 -1 -1 -1 -1 -1
-2 -2 -2 -2 -2 -2 -2 -1 -1 -1 -2 -2 -2 -1 -1 -2 -2 -2 -2 -2 -1 -1 -1 -0 -0 0 0 0 0 -0 -0 -0 -1 -1 -1 -1 -1 -1 -1 -1 -2 -2 -1 -1 -1 -1 -1 -1 -1 -2 -2 -2 -2 -2 -1 -1 -1 -1 -1 -1 -2 -1 -1 -1 -0 -0 -1 -1 -1 -1 -1 -1 -2 -1 -1 -1 -1 -1 -1 -1 -1 -1 -1 -1 -1 -1 -1 -1 -1 -1 -1 -1 -1 -1 -1 -1 -1 -1 -1 -2 -2 -2 -1
-1 -2 -2 -2 -1 -1 -1 -1 -1 -1 -2 -2 -2 -2 -2 -2 -2 -2 -2 -2 -2 -2 -1 -1 -0 -0 -0 0 0 0 0 -0 -0 -0 -1 -1 -1 -1 -1 -1 -1 -1 -1 -1 -1 -1 -1 -1 -1 -2 -2 -2 -2 -2 -2 -1 -1 -1 -1 -2 -2 -2 -1 -1 -1 -0 -1 -1 -1 -1 -0 -1 -2 -2 -1 -1 -1 -1 -1 -1 -1 -1 -1 -1 -1 -1 -1 -1 -1 -1 -1 -1 -1 -1 -1 -1 -1 -1 -1 -1 -1 -1 -1
-1 -1 -1 -1 -1 -1 -1 -1 -1 -1 -2 -2 -2 -2 -2 -2 -1 -2 -2 -2 -2 -2 -1 -1 -1 -1 -0 -0 -0 -0 -0 -0 -0 -0 -1 -1 -1 -1 -1 -1 -1 -1 -1 -1 -1 -1 -1 -1 -1 -1 -1 -1 -2 -2 -2 -2 -1 -1 -1 -2 -2 -2 -2 -1 -1 -1 -1 -1 -1 -1 -0 -1 -2 -2 -2 -2 -2 -1 -1 -1 -1 -1 -1 -1 -1 -1 -1 -1 -1 -1 -1 -1 -1 -1 -1 -1 -1 -1 -2 -2 -2 -2 -2
-0 -0 -0 -1 -1 -1 -1 -1 -1 -1 -1 -2 -2 -2 -2 -1 -1 -1 -1 -1 -1 -1 -1 -1 -1 -1 -1 -1 -0 -0 -1 -1 -1 -1 -1 -1 -1 -1 -1 -1 -1 -1 -1 -1 -1 -1 -1 -1 -1 -1 -1 -1 -1 -1 -2 -1 -1 -1 -1 -1 -2 -2 -2 -1 -1 -1 -1 -1 -1 -1 -1 -1 -1 -2 -2 -1 -1 -1 -1 -1 -1 -1 -1 -1 -1 -1 -1 -1 -1 -1 -1 -1 -1 -1 -1 -1 -1 -1 -2 -2 -2 -2 -2
-0 0 1 0 0 -0 -1 -0 -0 -0 -1 -2 -2 -2 -2 -1 -1 -1 -1 -1 -1 -1 -1 -1 -1 -1 -1 -0 -0 -0 -1 -1 -1 -1 -1 -1 -1 -1 -1 -1 -1 -1 -1 -1 -1 -1 -1 -1 -1 -1 -1 -1 -1 -1 -1 -1 -1 -1 -1 -1 -1 -2 -2 -2 -1 -1 -1 -1 -1 -2 -1 -1 -1 -1 -1 -1 -1 -1 -1 -1 -1 -1 -1 -1 -1 -1 -1 -1 -1 -1 -1 -1 -1 -1 -1 -1 -1 -1 -1 -2 -2 -2 -2
-1 -1 -0 0 1 1 1 1 1 1 -0 -1 -2 -2 -2 -1 -1 -1 -1 -1 -1 -1 -1 -1 -1 -1 -1 -0 -0 -0 -0 -1 -1 -1 -1 -1 -1 -1 -1 -1 -1 -1 -1 -1 -1 -1 -1 -1 -1 -1 -1 -1 -1 -1 -1 -1 -1 -1 -1 -1 -1 -1 -2 -1 -1 -1 -1 -1 -1 -2 -2 -1 -1 -1 -1 -1 -1 -1 -1 -1 -1 -1 -1 -1 -1 -1 -1 -1 -1 -1 -1 -1 -1 -1 -1 -1 -1 -1 -1 -1 -1 -1 -1
-2 -2 -2 -1 -1 -0 1 2 2 2 1 0 -1 -1 -1 -1 -1 -1 -1 -1 -1 -1 -1 -1 -1 -1 -1 -1 -0 -0 -0 -0 -0 -1 -1 -1 -1 -1 -1 -1 -1 -1 -1 -1 -1 -1 -1 -1 -1 -1 -1 -1 -1 -1 -1 -1 -1 -1 -1 -1 -1 -1 -1 -1 -1 -1 -1 -1 -1 -1 -1 -1 -1 -1 -2 -2 -2 -2 -1 -1 -1 -1 -2 -2 -2 -1 -1 -1 -1 -1 -1 -1 -1 -1 -1 -1 -1 -1 -1 -1 -1 -1 -1
-3 -3 -4 -3 -3 -3 -1 0 2 2 2 2 1 -0 -1 -1 -1 -1 -1 -1 -1 -1 -1 -1 -1 -1 -1 -1 -0 -0 -0 0 0 -0 -0 -1 -1 -1 -1 -1 -2 -2 -2 -1 -1 -1 -1 -1 -1 -2 -2 -2 -2 -2 -2 -1 -1 -1 -1 -1 -1 -1 -1 -1 -1 -1 -1 -1 -1 -1 -1 -1 -1 -1 -1 -1 -1 -2 -2 -2 -2 -2 -2 -2 -2 -2 -1 -1 -1 -1 -1 -1 -1 -1 -1 -1 -1 -1 -1 -1 -1 -1 -1
-3 -4 -4 -4 -4 -4 -4 -2 -1 0 2 2 2 1 1 -0 -1 -1 -1 -1 -1 -0 -0 -1 -1 -1 -0 -0 -0 -0 -0 0 0 0 0 -0 -1 -1 -1 -2 -2 -2 -2 -1 -1 -1 -1 -1 -1 -2 -2 -2 -2 -2 -2 -2 -1 -1 -1 -1 -1 -1 -1 -1 -1 -1 -1 -1 -1 -1 -1 -1 -1 -1 -1 -1 -1 -1 -1 -2 -2 -2 -2 -2 -2 -1 -1 -1 -1 -1 -1 -1 -1 -1 -1 -1 -1 -1 -1 -1 -1 -1 -1
-3 -3 -4 -4 -4 -4 -4 -4 -3 -2 -1 1 1 2 2 1 -0 -1 -1 -1 -0 -0 -0 -0 -0 -0 -0 -0 -1 -1 -0 -0 -0 0 0 -0 -1 -1 -1 -2 -2 -2 -2 -1 -1 -1 -1 -1 -1 -2 -2 -2 -2 -2 -2 -2 -1 -1 -1 -1 -1 -1 -1 -1 -1 -1 -1 -1 -1 -1 -1 -1 -1 -1 -1 -1 -1 -1 -1 -1 -1 -1 -1 -1 -1 -1 -1 -1 -1 -1 -1 -1 -1 -1 -1 -1 -1 -1 -1 -1 -1 -1 -1
-2 -2 -3 -2 -2 -2 -3 -3 -3 -3 -2 -1 0 1 2 1 1 1 0 -0 -0 -0 -0 -0 -0 -0 -0 -0 -1 -1 -1 -1 -1 -1 -0 -0 -0 -1 -1 -2 -2 -2 -2 -2 -2 -1 -1 -1 -1 -2 -2 -2 -1 -1 -2 -1 -1 -1 -1 -1 -1 -1 -1 -1 -1 -1 -1 -1 -1 -1 -1 -1 -1 -1 -1 -1 -1 -1 -1 -1 -1 -1 -1 -1 -1 -1 -1 -1 -1 -1 -1 -1 -1 -1 -1 -1 -1 -1 -1 -1 -1 -1 -1
-1 -2 -2 -2 -1 -1 -1 -2 -2 -2 -2 -2 -1 -0 1 1 1 1 1 1 0 0 -0 -0 -0 -0 -1 -1 -1 -1 -1 -2 -2 -1 -1 -0 -0 -0 -1 -1 -2 -2 -2 -2 -2 -2 -1 -1 -1 -2 -2 -1 -1 -1 -1 -1 -1 -1 -1 -1 -1 -1 -1 -1 -1 -1 -1 -1 -1 -1 -1 -1 -1 -1 -0 -0 -1 -1 -1 -1 -1 -1 -1 -1 -1 -1 -1 -1 -1 -1 -1 -1 -1 -1 -1 -1 -1 -1 -1 -1 -1 -1 -1
-0 -1 -2 -2 -1 -1 -0 -1 -1 -1 -1 -1 -1 -1 -1 0 0 1 1 1 1 0 0 -0 -1 -1 -1 -1 -1 -1 -1 -1 -2 -2 -1 -1 0 0 0 -1 -1 -2 -2 -2 -2 -2 -2 -1 -1 -2 -2 -2 -1 -1 -1 -1 -1 -1 -1 -1 -1 -1 -1 -1 -1 -1 -1 -1 -1 -1 -1 -1 -1 -1 -1 -1 -1 -1 -1 -1 -1 -1 -1 -1 -1 -1 -1 -1 -1 -1 -1 -0 -1 -1 -1 -1 -1 -1 -1 -1 -1 -1 -1
-0 -1 -2 -2 -2 -2 -1 -1 -1 -1 -1 -0 -1 -1 -2 -1 -0 -0 0 1 1 0 0 -0 -1 -1 -1 -1 -1 -0 -0 -0 -1 -1 -1 -0 0 1 1 0 -1 -1 -2 -2 -2 -2 -2 -2 -2 -2 -2 -2 -2 -1 -1 -1 -1 -1 -1 -1 -1 -1 -1 -1 -1 -1 -1 -1 -1 -1 -1 -1 -1 -1 -1 -1 -1 -1 -1 -1 -1 -1 -1 -1 -1 -1 -1 -1 -1 -1 -1 -1 -1 -1 -1 -1 -1 -1 -1 -1 -1 -1 -1
-1 -1 -2 -2 -2 -1 -1 -2 -2 -1 -1 0 0 -1 -2 -2 -1 -1 -1 -1 -0 0 -0 -1 -1 -1 -1 -1 -1 -1 -0 0 -0 -0 -1 -0 0 0 1 1 0 -1 -1 -2 -2 -2 -2 -2 -2 -2 -2 -2 -2 -1 -1 -1 -1 -1 -1 -1 -1 -1 -1 -0 -1 -1 -1 -1 -1 -1 -1 -1 -1 -1 -1 -1 -1 -1 -1 -1 -1 -1 -1 -1 -1 -1 -1 -1 -2 -1 -1 -1 -1 -1 -1 -1 -1 -1 -1 -1 -1 -1 -1
-1 -2 -3 -3 -2 -1 -0 -1 -2 -2 -2 0 0 -0 -2 -2 -2 -1 -1 -1 -0 -0 -0 -1 -1 -1 -1 -1 -1 -1 -0 0 0 -0 -1 -1 -0 0 1 1 0 -0 -0 -1 -1 -2 -1 -1 -1 -2 -2 -2 -2 -2 -1 -1 -1 -1 -1 -1 -1 -1 -1 -0 -0 -0 -1 -1 -1 -1 -1 -1 -1 -1 -1 -1 -1 -1 -1 -1 -1 -1 -2 -2 -2 -2 -2 -2 -2 -2 -2 -2 -2 -2 -1 -1 -1 -1 -1 -1 -1 -1 -1
-1 -2 -3 -4 -3 -1 1 0 -1 -3 -3 -1 0 0 -1 -1 -2 -2 -2 -1 -0 -0 -0 -1 -1 -1 -1 -1 -1 -1 0 0 -0 -0 -1 -1 -1 -1 -0 0 0 0 -0 -0 -1 -1 -1 -1 -1 -1 -2 -2 -2 -2 -1 -1 -1 -1 -1 -0 -0 -1 -1 -0 -0 -0 -0 -1 -1 -1 -1 -1 -1 -1 -1 -1 -1 -1 -1 -1 -1 -1 -1 -1 -2 -2 -2 -2 -2 -2 -2 -2 -2 -2 -2 -2 -2 -1 -1 -1 -1 -1 -1
-0 -1 -2 -3 -3 -1 0 1 -0 -2 -3 -2 -0 -0 -1 -1 -1 -2 -2 -1 -1 -0 -0 -0 -1 -1 -1 -1 -1 -1 0 -0 -0 -0 -1 -1 -1 -1 -1 -1 -0 -0 0 -0 -1 -1 -1 -1 -1 -1 -2 -2 -2 -2 -2 -1 -1 -1 -1 -1 -0 -0 -0 -0 -0 -0 -0 -0 -1 -1 -1 -1 -1 -0 -1 -1 -1 -1 -1 -1 -1 -1 -1 -1 -1 -1 -1 -1 -1 -1 -1 -2 -2 -2 -2 -2 -2 -2 -2 -1 -1 -1 -1
1 1 0 -1 -1 -1 0 1 1 -1 -2 -2 -1 0 -0 -1 -1 -2 -2 -1 -1 -0 -0 -0 -1 -1 -1 -1 -1 -1 -0 -0 -0 -0 -1 -1 -1 -1 -1 -1 -1 -0 -0 -0 -0 -1 -1 -1 -1 -1 -1 -2 -2 -3 -2 -1 -1 -1 -1 -1 -1 -0 -0 -0 -0 -0 -0 -0 -0 -0 -1 -1 -1 -1 -1 -1 -1 -1 -1 -1 -1 -1 -1 -1 -1 -1 -1 -1 -1 -0 -1 -1 -1 -2 -2 -2 -2 -2 -2 -2 -2 -2 -2
1 2 1 -0 -1 -1 0 1 1 1 -0 -1 0 1 -0 -1 -2 -2 -1 -1 -0 -0 -1 -1 -1 -1 -1 -1 -1 -1 -1 -1 -0 -0 -0 -1 -1 -1 -1 -2 -1 -1 -1 -1 -0 -1 -1 -1 -1 -1 -1 -2 -2 -3 -3 -2 -1 -1 -1 -1 -1 -1 -0 -0 -0 -0 -0 -0 -0 -0 -0 -0 -1 -1 -1 -1 -1 -1 -1 -1 -1 -0 -0 -0 -0 -0 -0 -0 0 0 0 0 -0 -1 -1 -2 -2 -2 -2 -2 -2 -2 -2
1 2 2 0 -1 -1 -1 1 2 2 2 1 1 2 0 -1 -2 -1 -1 0 0 -0 -2 -1 -1 -0 -0 -0 -1 -1 -1 -0 -0 -0 -1 -1 -0 -0 -1 -1 -1 -1 -1 -1 -1 -1 -1 -1 -1 -1 -1 -1 -2 -2 -3 -3 -2 -2 -1 -1 -1 -1 -1 -0 -0 -0 -0 -0 -0 -0 -0 -0 -1 -1 -1 -1 -1 -1 -1 -1 -1 -0 -0 -0 -0 -0 -0 -0 0 0 1 1 1 0 -0 -1 -1 -2 -2 -2 -2 -2 -2
1 1 1 0 -1 -2 -1 0 2 3 3 2 2 2 1 -1 -1 -1 0 1 0 -1 -3 -1 -0 0 0 -0 -1 -1 -1 -0 -0 -1 -1 -1 -0 0 -0 -1 -1 -1 -1 -1 -1 -1 -1 -1 -1 -1 -1 -1 -1 -2 -2 -3 -2 -2 -2 -2 -1 -1 -1 -1 -0 -0 -0 -0 -0 -0 -0 -0 -1 -1 -1 -1 -1 -1 -1 -0 -0 -1 -1 -1 -1 -1 -1 -0 -0 0 0 1 1 1 1 0 -0 -1 -1 -1 -1 -1 -1
-0 1 1 1 -0 -1 -1 -1 1 3 4 2 2 3 3 0 -1 -0 1 1 0 -2 -3 -1 0 1 1 0 -0 -0 0 0 -0 -1 -2 -1 -0 -0 -1 -1 -1 -1 -1 -1 -1 -1 -1 -1 -1 -1 -1 -1 -1 -1 -2 -2 -3 -2 -2 -2 -1 -1 -1 -1 -1 -1 -0 -0 -0 -0 -0 -0 -1 -1 -1 -1 -1 -1 -0 -0 -1 -1 -1 -1 -1 -1 -1 -1 -1 -0 -0 0 0 1 1 1 0 0 -0 -0 -1 -1 -1
-0 -0 0 1 1 -0 -1 -1 0 2 3 3 3 3 4 1 -0 -0 2 2 0 -2 -2 -1 0 1 1 0 -0 -0 0 1 -0 -2 -2 -1 -0 -1 -1 -1 -1 -1 -1 -0 -0 -1 -1 -1 -1 -1 -1 -1 -1 -1 -1 -2 -2 -2 -2 -2 -2 -1 -1 -1 -1 -1 -1 -0 -0 -0 -0 -0 -1 -1 -1 -1 -1 -1 -1 -1 -1 -1 -1 -1 -1 -1 -1 -1 -1 -1 -1 -0 -0 -0 0 0 0 0 0 0 -0 -0 -1
-0 -1 -0 0 1 1 0 -0 -0 1 2 2 2 3 4 2 0 -0 2 2 1 -1 -2 0 1 1 0 1 0 -0 0 1 -0 -2 -2 -1 -1 -1 -1 -1 -1 -1 -1 0 0 -1 -1 -1 -1 -1 -1 -1 -1 -1 -1 -1 -2 -2 -2 -2 -2 -1 -1 -1 -1 -1 -1 -1 -0 -0 -0 -1 -1 -1 -1 -1 -1 -1 -1 -1 -1 -1 -1 -1 -1 -1 -1 -1 -1 -1 -1 -1 -1 -1 -0 -0 0 0 0 0 0 0 -0
-0 -1 -0 0 1 1 2 1 -0 -1 0 1 1 2 3 2 1 0 2 3 1 -1 -2 0 1 1 0 1 1 0 -0 1 -0 -1 -2 -1 -1 -1 -1 -1 -1 -1 -1 0 0 -0 -1 -1 -1 -1 -1 -1 -1 -0 -1 -1 -1 -2 -2 -2 -2 -1 -1 -1 -1 -1 -1 -1 -0 -1 -1 -1 -1 -1 -1 -1 -1 -1 -1 -1 -1 -1 -1 -1 -1 -1 -1 -1 -1 -1 -1 -1 -1 -1 -1 -1 -0 -0 -0 0 0 0 0
1 -0 -0 0 1 2 3 1 -0 -2 -2 -1 1 3 4 2 1 1 2 3 1 -1 -3 -0 1 2 1 0 1 1 0 0 -0 -1 -1 -1 -1 -1 -1 -0 -1 -1 -1 0 0 0 -0 -1 -1 -1 -1 -1 -1 -0 -0 -1 -1 -2 -2 -2 -2 -1 -1 -1 -1 -1 -1 -1 -1 -1 -1 -1 -1 -1 -1 -1 -1 -1 -1 -1 -1 -1 -1 -1 -1 -1 -1 -1 -1 -1 -1 -1 -1 -1 -1 -1 -1 -0 -0 -0 0 0 0
1 1 -0 -0 1 2 3 2 -0 -2 -4 -2 0 3 4 3 1 1 2 2 1 -1 -3 -0 2 2 1 0 1 1 1 0 -0 -1 -1 -1 -2 -2 -1 -0 -1 -1 -1 0 0 0 0 0 -0 -1 -1 -1 -1 -1 -0 -0 -0 -1 -2 -2 -1 -1 -1 -2 -2 -1 -1 -1 -1 -1 -1 -1 -1 -1 -1 -1 -1 -1 -1 -1 -1 -1 -1 -1 -1 -1 -1 -1 -1 -1 -1 -1 -1 -1 -1 -1 -1 -1 -0 -0 -0 0 0
2 1 0 -0 0 1 2 2 -0 -2 -4 -2 0 3 4 2 2 1 2 2 1 -0 -3 0 3 3 1 -1 -0 1 1 0 -0 -1 -1 -1 -2 -2 -1 0 -0 -1 -1 0 0 0 1 0 -0 -0 -1 -1 -1 -1 -0 0 -0 -1 -1 -1 -1 -1 -1 -2 -2 -2 -2 -1 -1 -1 -1 -1 -1 -1 -1 -1 -1 -1 -1 -1 -1 -1 -1 -1 -1 -1 -1 -1 -1 -1 -1 -1 -1 -1 -1 -1 -1 -0 -0 -0 -0 0 0
2 2 1 1 1 1 1 1 -1 -2 -3 -1 1 2 2 2 2 2 2 2 2 1 -2 1 3 4 1 -1 -1 -0 1 0 -0 -1 -1 -2 -2 -2 -0 0 0 -0 0 -0 -0 0 1 1 0 -0 -1 -1 -1 -1 -0 0 0 -0 -1 -1 -1 -1 -1 -1 -2 -2 -2 -2 -1 -1 -1 -1 -1 -1 -1 -1 -1 -1 -1 -1 -1 -1 -1 -1 -1 -1 -1 -1 -1 -1 -1 -1 -0 -0 -0 -0 -0 -0 0 0 0 0 0
2 2 2 1 2 2 1 0 -1 -2 -2 -0 1 2 1 2 2 3 3 3 2 1 -0 1 3 4 1 -1 -2 -2 -0 -0 -1 -0 0 -1 -2 -2 -1 0 1 1 1 -0 -0 0 1 1 1 0 -1 -1 -1 -1 -0 0 0 -0 -0 -1 -0 -0 -0 -1 -1 -1 -2 -2 -1 -1 -1 -1 -1 -1 -1 -1 -1 -1 -1 -1 -1 -1 -1 -1 -1 -1 -1 -1 -1 -0 -0 -0 -0 -0 -0 -0 0 0 0 0 0 0 0
1 1 1 1 2 2 1 0 -1 -1 -1 1 2 2 2 2 3 3 3 2 2 1 1 1 2 2 2 -1 -2 -2 -1 -1 -1 -0 1 -0 -2 -2 -1 -0 0 1 1 -0 -0 0 1 1 0 -0 -0 -1 -1 -1 -1 0 0 0 -0 -1 -0 0 -0 -1 -1 -1 -1 -1 -1 -1 -1 -1 -1 -1 -1 -1 -1 -1 -1 -1 -1 -1 -1 -1 -1 -1 -1 -0 -0 -0 -0 -0 0 0 0 0 0 0 0 0 0 0 0
2 2 1 1 2 2 1 0 -0 -1 -0 2 3 3 2 2 2 2 2 1 1 1 2 1 0 1 2 0 -1 -2 -0 -1 -1 0 3 0 -2 -3 -2 -0 1 1 1 0 -0 -0 1 1 0 -0 -1 -1 -1 -1 -1 -0 0 0 -1 -1 -0 0 -0 -0 -1 -1 -1 -1 -1 -1 -1 -1 -1 -1 -1 -1 -1 -1 -0 -1 -1 -1 -1 -1 -1 -0 -0 -0 -0 -0 -0 -0 0 0 -0 0 0 0 0 0 0 0 0
2 2 2 2 2 1 1 1 -0 -0 0 2 4 4 3 2 1 1 1 0 0 1 2 1 0 1 4 2 0 -1 0 -2 -2 0 4 1 -2 -4 -3 1 1 1 0 -0 -0 -0 0 0 -0 -1 -0 -0 -0 -1 -1 -0 1 1 -0 -0 -0 -0 -0 -0 -0 -1 -0 -0 -1 -1 -1 -1 -1 -1 -1 -1 -0 -0 -0 -0 -0 -1 -1 -1 -1 -0 -0 -0 -1 -1 -1 -0 -0 -0 -0 -0 -0 -0 -0 -0 -0 -0 -0
1 1 1 1 1 1 1 1 1 -0 0 3 4 5 4 2 1 0 0 0 0 1 3 1 1 3 5 3 1 0 1 -2 -2 -0 3 0 -1 -2 -2 0 1 1 -1 -1 -0 0 -0 -0 -1 -1 -0 0 0 0 -0 0 0 0 -0 -0 -0 -0 -1 -0 -0 0 0 0 -0 -1 -1 -1 -1 -1 -1 -1 -0 -0 -0 0 0 -0 -1 -1 -1 -1 -0 -0 -1 -1 -1 -0 -0 -0 -1 -1 -1 -1 -1 -1 -1 -1 -1
0 -0 -0 0 1 1 1 2 1 -0 -1 2 4 6 5 3 1 -0 -1 -0 -0 0 3 2 2 3 6 4 1 0 2 -2 -2 -1 1 -1 0 2 1 -1 -1 -1 -3 -1 0 0 -1 -1 -1 -1 0 1 1 1 0 1 0 0 -0 0 -0 -0 -1 -1 -0 0 1 0 -0 -1 -1 -1 -1 -1 -1 -0 -1 -1 -1 -0 0 0 -0 -1 -1 -1 -0 -1 -1 -2 -1 -1 -0 -1 -1 -1 -1 -1 -1 -1 -1 -1 -1
1 0 0 -0 -0 -0 1 1 0 -1 -2 0 3 4 5 4 2 -1 -1 -1 -1 -1 0 2 3 3 5 4 2 -1 -1 -1 -1 -1 2 1 1 2 2 -0 -3 -4 -4 1 0 -1 -1 -2 -2 -0 1 1 1 1 1 1 0 -0 -0 0 0 -0 -1 -1 -0 0 1 0 -0 -1 -0 -1 -1 -0 -0 -0 -1 -1 -1 -0 -0 -0 -0 -0 -0 -0 0 -0 -1 -2 -1 -1 -1 -1 -1 -1 -1 -1 -2 -2 -2 -2 -2
1 2 2 1 0 -0 -0 0 -0 -1 -3 -2 -1 1 4 5 3 1 -1 -1 -1 -2 -2 0 3 4 4 4 2 -1 -4 0 1 2 3 3 2 -1 -2 -1 -3 -5 -2 2 -1 -4 -1 -1 -1 -1 1 1 1 1 1 1 1 -0 -0 0 0 -0 -1 -1 0 1 1 -0 -1 -1 -0 -0 -0 0 1 -0 -1 -1 -1 -0 -0 -1 -1 -1 -1 -0 1 1 -1 -2 -1 -1 -1 -1 -1 -1 -1 -1 -2 -2 -2 -2 -2
2 3 4 3 2 1 0 -0 -0 -1 -3 -4 -4 -1 1 4 4 2 -1 -1 -1 -2 -3 -3 0 3 3 3 2 0 -4 1 3 4 3 3 1 -2 -7 -5 -2 2 3 2 -4 -8 -7 3 5 2 -4 -1 1 1 0 2 1 -0 -0 0 0 -0 -1 -1 0 1 1 -1 -1 -1 0 -0 0 1 1 -0 -1 -0 0 -0 -1 -1 -1 -1 -1 -1 0 1 -0 -1 -1 -1 -0 -1 -1 -1 -1 -1 -1 -2 -2 -2 -2
3 3 4 5 4 2 1 1 2 1 -2 -5 -5 -4 -2 1 3 3 1 -1 -1 -1 -2 -5 -3 -0 3 3 3 2 -1 1 3 4 3 1 0 -1 -4 -4 1 4 1 -1 -4 -6 -5 -2 3 5 -2 -0 2 2 0 2 1 0 -1 0 0 -0 -1 -1 0 1 0 -1 -1 -1 0 0 1 1 0 -1 -0 0 1 -0 -1 -1 -1 -1 -1 -1 -1 -0 -1 -1 -1 -0 -0 -1 -1 -1 -1 -1 -1 -1 -1 -2 -2
2 3 3 4 4 3 1 2 3 3 1 -3 -5 -5 -3 -1 2 3 2 -1 -1 -1 -3 -6 -6 -4 1 3 3 2 1 1 2 4 4 1 -1 -1 1 1 -0 -1 -3 -5 -4 1 8 -4 -4 -1 -4 3 6 6 -1 1 1 1 -1 0 1 0 -1 -1 0 1 0 -2 -2 -1 1 1 1 1 -1 -1 -0 0 1 0 -0 -1 -1 -1 -1 -1 -1 -1 -1 -1 -1 1 1 -0 -3 -2 -1 -0 -0 -1 -1 -1 -1
2 2 1 3 4 5 3 1 1 1 1 -1 -3 -4 -3 -1 1 1 1 -0 -1 -1 -2 -4 -6 -6 -3 1 3 2 -1 -2 0 3 6 4 2 -0 -1 -1 -2 -2 -2 -4 0 4 2 -5 -3 -1 -10 1 8 8 1 1 1 1 1 1 1 1 -0 -0 0 1 0 -1 -1 -1 1 2 2 1 -0 -0 -0 0 0 0 -0 -1 -1 -1 -1 -2 -2 -1 -1 -1 -1 2 3 1 -2 -2 -2 -1 -1 -1 -1 -1 -1
2 1 1 2 2 3 2 0 -0 -1 -2 -1 -1 -2 -2 -1 -1 -0 -0 -0 -0 -0 -0 -3 -5 -5 -4 -1 3 3 -2 -8 -5 2 8 8 5 1 -2 -2 -1 0 2 2 4 4 -4 -4 -1 0 -7 -4 1 5 6 4 3 2 3 2 1 1 0 0 0 1 0 -1 -1 -1 0 2 2 2 1 0 -0 -0 -0 0 0 -0 -1 -1 -1 -2 -2 -1 -1 -1 -1 2 3 2 0 -1 -1 -1 -1 -1 -1 -0 -0
1 1 1 1 0 0 -0 -1 -2 -2 -4 -3 -2 -1 -2 -2 -1 -1 0 0 1 1 1 -3 -5 -5 -2 -1 1 1 -2 -8 -7 -1 8 9 6 2 1 0 -0 -0 1 3 4 4 0 -2 -2 -1 1 -7 -8 -3 5 7 7 5 4 2 2 1 1 0 0 1 1 -0 -0 -0 0 1 2 3 2 1 -0 -1 -0 0 0 -0 -1 -1 -2 -2 -1 -1 -1 -1 -1 1 2 3 2 0 -1 -1 -1 -1 -1 -1 -1
0 0 0 0 -0 -0 -1 -2 -3 -3 -4 -5 -4 -3 -1 -1 -0 0 1 -0 -0 1 2 -1 -4 -4 -2 -2 -1 -0 -1 -3 -4 -2 5 7 4 2 6 4 0 -2 -1 1 2 3 2 -1 -1 1 2 -6 -8 -7 -2 1 5 8 6 3 2 2 2 1 1 1 1 0 0 0 0 0 1 2 2 1 -0 -0 -0 1 0 -0 -1 -2 -2 -2 -1 -0 -0 -1 -1 1 2 3 1 0 -1 -1 -1 -1 -0 -0 -1
-0 -0 -1 -1 0 1 1 -1 -2 -3 -4 -5 -6 -4 -1 2 2 1 1 -0 -0 0 1 1 -1 -3 -3 -2 -1 -0 1 2 1 -1 -1 5 4 3 6 5 1 -2 -2 -2 -1 1 2 -1 1 3 2 -1 -3 -4 -8 -6 -0 5 6 4 5 5 3 1 1 1 2 1 1 1 0 -0 1 2 2 1 0 0 1 1 0 -0 -0 -2 -2 -2 -1 -1 -1 -1 -0 2 3 3 1 -0 -1 -1 -0 0 0 0 0
Height
3179 3179 3178 3178 3178 3178 3177 3177 3177 3177 3177 3177 3177 3177 3177 3177 3177 3177 3177 3177 3177 3177 3177 3177 3177 3177 3177 3177 3177 3177 3178 3178 3178 3178 3178 3178 3179 3179 3179 3179 3179 3179 3179 3179 3179 3179 3179 3179 3179 3179 3178 3178 3178 3178 3178 3178 3178 3178 3178 3178 3178 3177 3177 3177 3177 3176 3176 3176 3176 3176 3175 3175 3175 3175 3175 3174 3174 3174 3175 3174 3174 3174 3173 3173 3173 3172 3172 3171 3171 3171 3171 3170 3170 3170 3170 3171 3171 3170 3171 3171 3171 3170 3170
3180 3179 3179 3179 3179 3178 3178 3178 3178 3178 3178 3178 3178 3178 3178 3177 3177 3177 3177 3177 3177 3177 3178 3178 3178 3178 3178 3178 3178 3178 3178 3178 3178 3179 3179 3179 3179 3179 3179 3179 3179 3179 3179 3179 3179 3179 3179 3179 3179 3179 3178 3178 3178 3178 3178 3178 3178 3178 3178 3178 3177 3177 3177 3177 3177 3176 3176 3176 3176 3175 3175 3175 3175 3175 3174 3174 3174 3174 3175 3174 3173 3173 3173 3173 3172 3172 3171 3171 3170 3170 3170 3170 3171 3171 3171 3171 3170 3170 3171 3171 3170 3170 3169
3181 3180 3180 3179 3179 3179 3179 3179 3179 3179 3179 3179 3179 3178 3178 3178 3178 3178 3178 3178 3178 3178 3178 3178 3178 3178 3178 3178 3178 3179 3179 3179 3179 3179 3179 3179 3179 3179 3179 3179 3179 3179 3179 3179 3179 3179 3179 3179 3179 3179 3178 3178 3178 3178 3178 3178 3178 3178 3178 3177 3177 3177 3177 3177 3176 3176 3176 3176 3175 3175 3175 3175 3175 3174 3174 3174 3174 3174 3174 3173 3173 3173 3172 3172 3171 3171 3171 3171 3170 3170 3170 3171 3171 3170 3171 3170 3170 3171 3170 3170 3170 3169 3169
3181 3181 3181 3180 3180 3180 3180 3180 3179 3179 3179 3179 3179 3179 3179 3179 3179 3179 3179 3179 3179 3179 3179 3179 3179 3179 3179 3179 3179 3179 3179 3179 3179 3179 3179 3179 3179 3179 3179 3179 3179 3179 3179 3179 3179 3179 3179 3179 3179 3179 3178 3178 3178 3178 3178 3178 3178 3177 3177 3177 3177 3177 3177 3176 3176 3176 3175 3175 3175 3175 3175 3174 3174 3174 3174 3174 3174 3173 3173 3173 3173 3172 3172 3171 3171 3171 3170 3171 3171 3171 3171 3171 3170 3169 3169 3170 3170 3170 3170 3170 3169 3169 3169
3182 3182 3182 3181 3181 3181 3181 3181 3180 3180 3180 3180 3180 3180 3179 3179 3179 3179 3179 3179 3179 3179 3179 3179 3179 3179 3179 3179 3179 3179 3179 3179 3179 3179 3179 3179 3179 3179 3179 3179 3179 3179 3179 3179 3179 3179 3179 3179 3179 3179 3178 3178 3178 3178 3178 3177 3177 3177 3177 3177 3177 3176 3176 3176 3176 3175 3175 3175 3175 3174 3174 3174 3174 3174 3174 3174 3173 3173 3173 3173 3172 3172 3172 3171 3171 3170 3170 3170 3170 3170 3170 3169 3169 3169 3169 3169 3169 3170 3170 3169 3169 3169 3169
3183 3183 3183 3182 3182 3182 3182 3182 3181 3181 3181 3181 3180 3180 3180 3180 3180 3180 3180 3180 3180 3180 3180 3180 3180 3180 3180 3180 3180 3180 3180 3180 3180 3180 3180 3180 3180 3180 3180 3179 3179 3179 3179 3179 3179 3179 3179 3179 3179 3178 3178 3178 3178 3177 3177 3177 3177 3177 3176 3176 3176 3176 3176 3175 3175 3175 3175 3175 3174 3174 3174 3174 3174 3174 3174 3174 3173 3173 3172 3172 3172 3172 3171 3171 3170 3170 3170 3169 3169 3169 3169 3169 3169 3169 3169 3169 3169 3169 3169 3169 3169 3169 3168
3184 3184 3183 3183 3183 3183 3183 3183 3182 3182 3182 3182 3181 3181 3181 3181 3181 3181 3181 3181 3181 3181 3181 3181 3181 3181 3181 3181 3180 3180 3180 3180 3180 3180 3180 3180 3180 3180 3180 3180 3179 3179 3179 3179 3179 3179 3179 3179 3178 3178 3178 3178 3177 3177 3177 3177 3177 3176 3176 3176 3176 3176 3175 3175 3175 3175 3175 3174 3174 3174 3174 3174 3174 3174 3174 3173 3173 3172 3172 3172 3171 3171 3171 3171 3170 3170 3169 3169 3169 3168 3168 3168 3169 3168 3168 3168 3168 3168 3168 3168 3168 3168 3168
3184 3184 3184 3184 3184 3184 3184 3184 3183 3183 3183 3183 3182 3182 3182 3182 3182 3182 3182 3182 3182 3182 3182 3181 3181 3181 3181 3181 3181 3181 3181 3181 3181 3181 3180 3180 3180 3180 3180 3180 3179 3179 3179 3179 3179 3179 3179 3179 3178 3178 3178 3178 3177 3177 3177 3177 3176 3176 3176 3176 3176 3175 3175 3175 3175 3175 3174 3174 3174 3174 3174 3174 3174 3173 3173 3173 3172 3172 3172 3171 3171 3171 3170 3170 3170 3169 3169 3169 3168 3168 3168 3168 3168 3168 3168 3168 3167 3167 3167 3167 3167 3167 3167
3185 3184 3184 3184 3184 3184 3184 3184 3184 3184 3184 3184 3183 3183 3183 3183 3183 3183 3183 3183 3183 3182 3182 3182 3182 3182 3182 3182 3182 3182 3182 3181 3181 3181 3181 3181 3181 3180 3180 3180 3180 3180 3179 3179 3179 3179 3179 3179 3178 3178 3178 3178 3177 3177 3177 3177 3176 3176 3176 3176 3176 3175 3175 3175 3175 3175 3174 3174 3174 3174 3174 3174 3173 3173 3173 3172 3172 3172 3171 3171 3171 3170 3170 3170 3169 3169 3169 3169 3168 3168 3168 3167 3167 3168 3168 3167 3167 3167 3167 3167 3167 3167 3167
3185 3185 3185 3185 3185 3185 3185 3185 3185 3184 3184 3184 3184 3184 3184 3184 3184 3184 3184 3183 3183 3183 3183 3183 3183 3183 3182 3182 3182 3182 3182 3182 3182 3181 3181 3181 3181 3181 3181 3180 3180 3180 3180 3180 3179 3179 3179 3179 3179 3178 3178 3178 3177 3177 3177 3177 3176 3176 3176 3176 3176 3176 3175 3175 3175 3175 3174 3174 3174 3174 3174 3174 3173 3173 3172 3172 3172 3171 3171 3171 3170 3170 3170 3169 3169 3169 3169 3168 3168 3168 3168 3167 3167 3167 3167 3167 3167 3167 3167 3167 3166 3166 3166
3185 3185 3185 3185 3185 3185 3185 3185 3185 3185 3185 3185 3185 3185 3184 3184 3184 3184 3184 3184 3184 3184 3184 3183 3183 3183 3183 3183 3183 3182 3182 3182 3182 3182 3182 3182 3181 3181 3181 3181 3181 3180 3180 3180 3180 3179 3179 3179 3179 3178 3178 3178 3178 3177 3177 3177 3177 3176 3176 3176 3176 3176 3175 3175 3175 3175 3174 3174 3174 3174 3174 3173 3173 3172 3172 3172 3171 3171 3171 3170 3170 3170 3169 3169 3169 3169 3168 3168 3168 3168 3167 3167 3167 3167 3167 3167 3167 3167 3166 3166 3166 3166 3166
3186 3186 3186 3186 3186 3186 3186 3186 3186 3186 3185 3185 3185 3185 3185 3185 3185 3184 3184 3184 3184 3184 3184 3184 3184 3183 3183 3183 3183 3183 3183 3182 3182 3182 3182 3182 3182 3181 3181 3181 3181 3181 3180 3180 3180 3179 3179 3179 3179 3179 3178 3178 3178 3177 3177 3177 3177 3176 3176 3176 3176 3175 3175 3175 3175 3175 3174 3174 3174 3173 3173 3173 3172 3172 3172 3171 3171 3171 3170 3170 3170 3169 3169 3169 3169 3168 3168 3168 3167 3167 3167 3167 3167 3167 3167 3167 3166 3166 3166 3166 3166 3166 3165
3186 3186 3186 3186 3186 3186 3186 3186 3186 3186 3186 3186 3186 3185 3185 3185 3185 3185 3185 3185 3184 3184 3184 3184 3184 3184 3184 3183 3183 3183 3183 3183 3183 3182 3182 3182 3182 3182 3181 3181 3181 3181 3180 3180 3180 3180 3179 3179 3179 3179 3178 3178 3178 3178 3177 3177 3177 3176 3176 3176 3176 3175 3175 3175 3175 3174 3174 3174 3173 3173 3173 3172 3172 3172 3172 3171 3171 3170 3170 3170 3169 3169 3169 3168 3168 3168 3168 3167 3167 3167 3167 3167 3167 3167 3166 3166 3166 3166 3166 3166 3165 3165 3165
3186 3186 3186 3186 3186 3186 3186 3186 3186 3186 3186 3186 3186 3186 3186 3185 3185 3185 3185 3185 3185 3185 3184 3184 3184 3184 3184 3184 3183 3183 3183 3183 3183 3183 3182 3182 3182 3182 3182 3181 3181 3181 3180 3180 3180 3180 3179 3179 3179 3179 3178 3178 3178 3178 3177 3177 3177 3176 3176 3176 3175 3175 3175 3175 3174 3174 3174 3173 3173 3173 3172 3172 3172 3171 3171 3171 3170 3170 3170 3169 3169 3169 3168 3168 3168 3168 3167 3167 3167 3167 3167 3166 3166 3166 3166 3166 3166 3166 3165 3165 3165 3165 3165
3186 3186 3186 3186 3186 3186 3186 3186 3186 3186 3186 3186 3186 3186 3186 3186 3185 3185 3185 3185 3185 3185 3185 3184 3184 3184 3184 3184 3184 3183 3183 3183 3183 3183 3182 3182 3182 3182 3182 3181 3181 3181 3180 3180 3180 3180 3179 3179 3179 3179 3178 3178 3178 3177 3177 3177 3176 3176 3176 3175 3175 3175 3174 3174 3174 3174 3173 3173 3173 3172 3172 3171 3171 3171 3171 3170 3170 3170 3169 3169 3169 3168 3168 3168 3167 3167 3167 3167 3167 3166 3166 3166 3166 3166 3166 3166 3166 3165 3165 3165 3165 3165 3164
3186 3186 3186 3186 3186 3186 3186 3186 3186 3186 3186 3186 3186 3186 3186 3186 3186 3185 3185 3185 3185 3185 3185 3184 3184 3184 3184 3184 3184 3183 3183 3183 3183 3183 3182 3182 3182 3182 3182 3181 3181 3181 3180 3180 3180 3179 3179 3179 3179 3178 3178 3178 3177 3177 3177 3176 3176 3176 3175 3175 3175 3174 3174 3174 3174 3173 3173 3173 3172 3172 3172 3171 3171 3170 3170 3170 3170 3169 3169 3169 3169 3168 3168 3168 3167 3167 3167 3167 3166 3166 3166 3166 3166 3166 3166 3165 3165 3165 3165 3165 3164 3164 3164
3186 3186 3186 3186 3186 3186 3186 3186 3186 3186 3186 3186 3186 3186 3186 3186 3185 3185 3185 3185 3185 3185 3184 3184 3184 3184 3184 3184 3184 3183 3183 3183 3183 3183 3182 3182 3182 3182 3181 3181 3181 3181 3180 3180 3180 3179 3179 3179 3178 3178 3178 3177 3177 3177 3176 3176 3176 3175 3175 3175 3174 3174 3174 3174 3174 3173 3173 3172 3172 3172 3171 3171 3170 3170 3170 3169 3169 3169 3169 3169 3168 3168 3168 3167 3167 3167 3167 3166 3166 3166 3166 3166 3166 3166 3165 3165 3165 3165 3165 3164 3164 3164 3164
3186 3186 3186 3186 3186 3186 3186 3186 3186 3186 3186 3186 3186 3186 3186 3186 3185 3185 3185 3185 3185 3184 3184 3184 3184 3184 3184 3184 3184 3183 3183 3183 3183 3183 3182 3182 3182 3182 3181 3181 3181 3180 3180 3180 3179 3179 3179 3179 3178 3178 3177 3177 3177 3176 3176 3175 3175 3175 3174 3174 3174 3174 3174 3173 3173 3173 3172 3172 3172 3171 3171 3171 3170 3170 3169 3169 3169 3169 3169 3168 3168 3168 3167 3167 3167 3167 3166 3166 3166 3166 3166 3165 3165 3165 3165 3165 3165 3165 3164 3164 3164 3164 3164
3185 3186 3186 3186 3186 3186 3186 3186 3186 3185 3185 3185 3185 3185 3185 3185 3185 3185 3185 3185 3184 3184 3184 3184 3184 3184 3184 3184 3183 3183 3183 3183 3183 3182 3182 3182 3182 3181 3181 3181 3181 3180 3180 3179 3179 3179 3179 3178 3178 3177 3177 3177 3176 3176 3175 3175 3175 3174 3174 3174 3173 3173 3173 3173 3173 3172 3172 3172 3171 3171 3171 3170 3170 3170 3169 3169 3169 3169 3168 3168 3168 3167 3167 3167 3167 3166 3166 3166 3166 3166 3165 3165 3165 3165 3165 3165 3164 3164 3164 3164 3164 3164 3164
3185 3185 3185 3186 3186 3186 3186 3185 3185 3185 3185 3185 3185 3185 3185 3185 3185 3185 3184 3184 3184 3184 3184 3184 3184 3184 3183 3183 3183 3183 3183 3183 3182 3182 3182 3182 3181 3181 3181 3181 3180 3180 3180 3179 3179 3179 3178 3178 3177 3177 3176 3176 3176 3175 3175 3174 3174 3174 3174 3173 3173 3173 3172 3172 3172 3172 3172 3171 3171 3170 3170 3170 3170 3169 3169 3169 3169 3168 3168 3168 3167 3167 3167 3167 3166 3166 3166 3166 3165 3165 3165 3165 3165 3164 3164 3164 3164 3164 3164 3164 3164 3163 3163
3184 3185 3185 3185 3185 3185 3185 3185 3185 3185 3185 3184 3184 3184 3184 3184 3184 3184 3184 3184 3184 3184 3184 3184 3184 3183 3183 3183 3183 3183 3182 3182 3182 3182 3182 3181 3181 3181 3181 3180 3180 3180 3179 3179 3179 3178 3178 3177 3177 3176 3176 3175 3175 3175 3174 3174 3174 3173 3173 3173 3172 3172 3172 3172 3172 3171 3171 3171 3170 3170 3170 3170 3169 3169 3169 3169 3168 3168 3168 3167 3167 3167 3166 3166 3166 3166 3165 3165 3165 3165 3164 3164 3164 3164 3164 3164 3164 3163 3163 3163 3163 3163 3163
3184 3184 3184 3184 3185 3185 3185 3185 3185 3185 3184 3184 3184 3184 3184 3184 3184 3184 3184 3184 3184 3184 3183 3183 3183 3183 3183 3183 3182 3182 3182 3182 3181 3181 3181 3181 3181 3180 3180 3180 3180 3179 3179 3179 3178 3178 3177 3177 3176 3176 3175 3175 3174 3174 3174 3173 3173 3173 3172 3172 3172 3171 3171 3171 3171 3171 3170 3170 3170 3170 3169 3169 3169 3169 3168 3168 3168 3167 3167 3167 3167 3166 3166 3166 3165 3165 3165 3165 3164 3164 3164 3164 3164 3163 3163 3163 3163 3163 3163 3162 3162 3162 3162
3183 3184 3184 3184 3184 3184 3184 3184 3184 3184 3184 3184 3184 3184 3184 3184 3184 3184 3183 3183 3183 3183 3183 3183 3183 3182 3182 3182 3182 3182 3181 3181 3181 3181 3181 3180 3180 3180 3180 3179 3179 3179 3179 3178 3178 3177 3177 3176 3176 3175 3174 3174 3174 3173 3173 3173 3172 3172 3172 3171 3171 3171 3171 3170 3170 3170 3170 3170 3169 3169 3169 3169 3169 3168 3168 3168 3167 3167 3167 3166 3166 3166 3165 3165 3165 3165 3164 3164 3164 3164 3164 3163 3163 3163 3163 3162 3162 3162 3162 3162 3162 3161 3161
3182 3183 3183 3183 3183 3183 3183 3184 3184 3184 3184 3184 3184 3183 3183 3183 3183 3183 3183 3183 3183 3183 3182 3182 3182 3182 3182 3182 3181 3181 3181 3181 3180 3180 3180 3180 3180 3179 3179 3179 3179 3179 3178 3178 3177 3177 3176 3176 3175 3174 3174 3174 3173 3173 3172 3172 3172 3171 3171 3171 3170 3170 3170 3170 3170 3169 3169 3169 3169 3169 3169 3168 3168 3168 3167 3167 3167 3166 3166 3166 3166 3165 3165 3165 3164 3164 3164 3164 3164 3164 3163 3163 3163 3163 3162 3162 3162 3162 3161 3161 3161 3161 3161
3181 3182 3182 3182 3182 3182 3182 3182 3183 3183 3183 3183 3183 3183 3183 3182 3182 3182 3182 3182 3182 3182 3182 3182 3181 3181 3181 3181 3181 3181 3180 3180 3180 3180 3180 3179 3179 3179 3179 3179 3178 3178 3178 3177 3177 3176 3176 3175 3174 3174 3174 3173 3173 3172 3172 3171 3171 3171 3170 3170 3170 3169 3169 3169 3169 3169 3169 3169 3168 3168 3168 3168 3167 3167 3167 3167 3166 3166 3166 3165 3165 3165 3165 3164 3164 3164 3164 3164 3163 3163 3163 3163 3162 3162 3162 3162 3161 3161 3161 3161 3160 3160 3160
3180 3181 3181 3181 3181 3181 3181 3181 3181 3182 3182 3182 3182 3182 3182 3182 3181 3181 3181 3181 3181 3181 3181 3181 3181 3180 3180 3180 3180 3180 3180 3180 3179 3179 3179 3179 3179 3178 3178 3178 3178 3177 3177 3177 3176 3176 3175 3174 3174 3173 3173 3172 3172 3172 3171 3171 3170 3170 3170 3169 3169 3169 3169 3169 3169 3168 3168 3168 3168 3168 3167 3167 3167 3167 3166 3166 3166 3165 3165 3165 3165 3164 3164 3164 3164 3164 3163 3163 3163 3163 3162 3162 3162 3162 3161 3161 3161 3161 3160 3160 3160 3160 3159
3179 3180 3180 3180 3180 3180 3180 3180 3180 3180 3181 3181 3181 3181 3181 3181 3181 3180 3180 3180 3180 3180 3180 3180 3180 3180 3180 3179 3179 3179 3179 3179 3179 3179 3179 3178 3178 3178 3177 3177 3177 3177 3176 3176 3175 3175 3174 3174 3174 3173 3172 3172 3171 3171 3170 3170 3170 3169 3169 3169 3169 3169 3168 3168 3168 3168 3168 3167 3167 3167 3167 3167 3166 3166 3166 3166 3165 3165 3165 3164 3164 3164 3164 3164 3163 3163 3163 3163 3162 3162 3162 3162 3161 3161 3161 3161 3160 3160 3160 3159 3159 3159 3159
3178 3179 3179 3179 3179 3179 3179 3179 3179 3179 3179 3180 3180 3180 3180 3180 3180 3179 3179 3179 3179 3179 3179 3179 3179 3179 3179 3179 3179 3179 3179 3178 3178 3178 3178 3177 3177 3177 3176 3176 3176 3176 3176 3175 3175 3174 3174 3173 3173 3172 3172 3171 3171 3170 3170 3169 3169 3169 3169 3168 3168 3168 3168 3167 3167 3167 3167 3167 3167 3166 3166 3166 3166 3166 3165 3165 3165 3165 3164 3164 3164 3164 3163 3163 3163 3163 3162 3162 3162 3162 3161 3161 3161 3160 3160 3160 3160 3159 3159 3159 3159 3159 3158
3177 3177 3178 3178 3178 3178 3178 3179 3179 3179 3179 3179 3179 3179 3179 3179 3179 3179 3179 3178 3178 3178 3178 3178 3178 3178 3178 3178 3178 3178 3178 3177 3177 3177 3177 3176 3176 3176 3175 3175 3175 3175 3175 3174 3174 3174 3173 3173 3172 3172 3171 3171 3170 3170 3169 3169 3169 3168 3168 3168 3167 3167 3167 3167 3166 3166 3166 3166 3166 3166 3165 3165 3165 3165 3165 3164 3164 3164 3164 3164 3163 3163 3163 3163 3162 3162 3162 3162 3161 3161 3161 3160 3160 3160 3160 3159 3159 3159 3159 3159 3158 3158 3158
3176 3176 3176 3177 3177 3177 3177 3177 3177 3178 3178 3178 3178 3177 3177 3177 3177 3177 3177 3177 3177 3177 3177 3177 3177 3177 3177 3177 3177 3177 3177 3176 3176 3176 3176 3176 3175 3175 3174 3174 3174 3174 3174 3174 3173 3173 3172 3172 3171 3171 3170 3170 3169 3169 3169 3168 3168 3168 3167 3167 3167 3166 3166 3166 3166 3165 3165 3165 3165 3165 3165 3164 3164 3164 3164 3164 3164 3164 3163 3163 3163 3163 3162 3162 3162 3161 3161 3161 3161 3160 3160 3160 3159 3159 3159 3159 3159 3158 3158 3158 3158 3157 3157
3175 3175 3175 3176 3176 3176 3176 3176 3176 3176 3176 3176 3176 3176 3176 3176 3176 3176 3176 3176 3176 3176 3176 3176 3176 3176 3176 3176 3176 3176 3176 3175 3175 3175 3175 3175 3174 3174 3174 3174 3173 3173 3173 3172 3172 3172 3171 3171 3170 3170 3169 3169 3169 3168 3168 3168 3167 3167 3166 3166 3166 3166 3165 3165 3165 3165 3164 3164 3164 3164 3164 3164 3164 3164 3163 3163 3163 3163 3163 3162 3162 3162 3162 3161 3161 3161 3161 3160 3160 3160 3159 3159 3159 3159 3158 3158 3158 3158 3157 3157 3157 3156 3156
3174 3174 3174 3175 3175 3174 3174 3175 3175 3175 3175 3175 3175 3175 3175 3175 3175 3175 3175 3175 3175 3175 3175 3175 3175 3175 3175 3175 3175 3174 3174 3174 3174 3174 3174 3174 3173 3173 3173 3173 3172 3172 3172 3171 3171 3171 3170 3170 3169 3169 3169 3168 3168 3167 3167 3167 3166 3166 3166 3165 3165 3165 3164 3164 3164 3164 3164 3164 3163 3163 3163 3163 3163 3163 3163 3162 3162 3162 3162 3162 3161 3161 3161 3161 3160 3160 3160 3160 3159 3159 3159 3158 3158 3158 3157 3157 3157 3157 3156 3156 3156 3155 3155
3172 3173 3173 3173 3174 3174 3173 3174 3174 3174 3174 3174 3174 3174 3174 3174 3174 3173 3173 3174 3174 3174 3173 3173 3174 3174 3174 3174 3173 3173 3173 3173 3173 3173 3173 3173 3172 3172 3172 3171 3171 3171 3171 3170 3170 3170 3169 3169 3169 3168 3168 3167 3167 3167 3166 3166 3165 3165 3165 3164 3164 3164 3164 3164 3163 3163 3163 3163 3163 3162 3162 3162 3162 3162 3162 3162 3161 3161 3161 3161 3161 3160 3160 3160 3160 3159 3159 3159 3159 3159 3158 3158 3157 3157 3157 3156 3156 3156 3155 3155 3155 3154 3154
3171 3171 3171 3172 3172 3172 3172 3172 3172 3172 3173 3173 3173 3173 3172 3172 3172 3172 3172 3172 3172 3172 3172 3172 3172 3172 3172 3172 3172 3172 3172 3172 3172 3172 3171 3171 3171 3171 3170 3170 3170 3170 3169 3169 3169 3169 3169 3168 3168 3167 3167 3166 3166 3166 3165 3165 3165 3164 3164 3164 3164 3163 3163 3163 3162 3162 3162 3162 3162 3161 3161 3161 3161 3161 3161 3161 3160 3160 3160 3160 3160 3159 3159 3159 3159 3159 3159 3158 3158 3158 3157 3157 3157 3156 3156 3155 3155 3155 3154 3154 3154 3154 3153
3169 3170 3170 3170 3170 3170 3171 3171 3171 3171 3171 3171 3171 3171 3171 3171 3171 3171 3171 3171 3171 3171 3171 3171 3171 3170 3170 3170 3170 3170 3170 3170 3170 3170 3170 3170 3170 3169 3169 3169 3169 3169 3169 3168 3168 3168 3167 3167 3167 3166 3166 3165 3165 3165 3164 3164 3164 3164 3163 3163 3163 3162 3162 3162 3161 3161 3161 3161 3161 3160 3160 3160 3160 3160 3160 3159 3159 3159 3159 3159 3159 3159 3159 3158 3158 3158 3158 3158 3157 3157 3157 3156 3156 3155 3155 3154 3154 3154 3154 3153 3153 3153 3152
3168 3169 3169 3169 3169 3169 3169 3169 3169 3169 3169 3170 3170 3170 3170 3169 3169 3169 3169 3169 3169 3169 3169 3169 3169 3169 3169 3169 3169 3169 3169 3169 3169 3169 3169 3169 3169 3168 3168 3168 3168 3168 3167 3167 3167 3167 3166 3166 3166 3165 3165 3164 3164 3164 3164 3163 3163 3163 3162 3162 3162 3161 3161 3161 3160 3160 3160 3160 3159 3159 3159 3159 3159 3159 3159 3159 3158 3158 3158 3158 3158 3158 3157 3157 3157 3157 3157 3156 3156 3156 3156 3155 3155 3155 3154 3154 3154 3153 3153 3152 3152 3152 3151
3167 3167 3167 3167 3167 3167 3168 3168 3168 3168 3168 3168 3168 3169 3168 3168 3168 3168 3168 3168 3168 3168 3168 3168 3168 3168 3168 3168 3168 3168 3167 3167 3167 3167 3167 3167 3167 3167 3167 3166 3166 3166 3166 3166 3166 3165 3165 3165 3164 3164 3164 3164 3163 3163 3163 3162 3162 3162 3161 3161 3160 3160 3160 3159 3159 3159 3159 3159 3158 3158 3158 3158 3158 3158 3157 3157 3157 3157 3157 3157 3157 3156 3156 3156 3156 3156 3155 3155 3155 3155 3155 3154 3154 3154 3154 3153 3153 3152 3152 3151 3151 3151 3150
3165 3165 3165 3165 3166 3166 3166 3166 3166 3166 3166 3166 3167 3167 3167 3166 3166 3166 3166 3166 3166 3166 3166 3166 3166 3166 3166 3166 3166 3166 3166 3166 3166 3166 3166 3166 3165 3165 3165 3165 3165 3165 3165 3165 3164 3164 3164 3164 3163 3163 3163 3163 3162 3162 3161 3161 3161 3160 3160 3160 3159 3159 3159 3159 3158 3158 3158 3157 3157 3157 3157 3157 3156 3156 3156 3156 3156 3156 3155 3155 3155 3155 3155 3155 3155 3154 3154 3154 3154 3154 3154 3153 3153 3153 3153 3152 3152 3151 3151 3150 3150 3150 3149
3163 3163 3164 3164 3164 3164 3164 3164 3164 3165 3165 3165 3165 3165 3165 3165 3165 3165 3165 3165 3164 3164 3164 3164 3164 3164 3164 3164 3164 3164 3164 3164 3164 3164 3164 3164 3164 3164 3164 3164 3164 3164 3163 3163 3163 3163 3163 3162 3162 3162 3162 3161 3161 3161 3160 3160 3159 3159 3159 3159 3158 3158 3158 3157 3157 3157 3156 3156 3156 3156 3155 3155 3155 3155 3155 3154 3154 3154 3154 3154 3154 3154 3154 3154 3154 3153 3153 3153 3153 3153 3152 3152 3152 3152 3151 3151 3151 3150 3150 3149 3149 3149 3149
3161 3161 3162 3162 3162 3162 3162 3162 3163 3163 3163 3164 3164 3164 3164 3163 3163 3163 3163 3163 3163 3162 3163 3163 3163 3163 3162 3162 3162 3162 3162 3162 3162 3162 3162 3162 3162 3162 3162 3162 3162 3162 3162 3162 3162 3161 3161 3161 3161 3160 3160 3160 3160 3159 3159 3159 3158 3158 3158 3158 3157 3157 3157 3156 3156 3156 3155 3155 3155 3154 3154 3154 3154 3154 3153 3153 3153 3153 3153 3153 3153 3153 3152 3152 3152 3152 3152 3152 3152 3151 3151 3151 3151 3150 3150 3150 3149 3149 3149 3149 3148 3148 3147
3159 3159 3160 3160 3160 3160 3160 3160 3160 3161 3162 3162 3162 3162 3162 3161 3161 3161 3161 3161 3161 3160 3161 3161 3161 3161 3160 3160 3160 3160 3160 3160 3160 3160 3160 3160 3160 3160 3160 3160 3160 3160 3160 3160 3160 3160 3159 3159 3159 3159 3159 3159 3158 3158 3158 3158 3157 3157 3156 3156 3156 3155 3155 3155 3155 3154 3154 3154 3154 3153 3153 3153 3152 3152 3152 3152 3152 3152 3151 3151 3151 3151 3151 3151 3151 3151 3150 3150 3150 3150 3150 3149 3149 3149 3149 3149 3149 3148 3148 3147 3147 3147 3146
3158 3158 3158 3158 3159 3159 3159 3159 3159 3159 3160 3160 3160 3160 3160 3159 3159 3159 3159 3159 3159 3159 3159 3159 3159 3159 3159 3159 3159 3158 3159 3159 3159 3158 3158 3159 3159 3159 3159 3159 3159 3159 3159 3159 3159 3158 3158 3158 3158 3158 3157 3157 3157 3157 3156 3156 3156 3155 3155 3155 3154 3154 3154 3154 3153 3153 3153 3153 3152 3152 3152 3151 3151 3151 3150 3150 3150 3150 3150 3150 3150 3149 3149 3149 3149 3149 3149 3149 3149 3149 3149 3148 3148 3148 3148 3147 3147 3147 3147 3146 3146 3145 3145
3156 3156 3156 3157 3157 3157 3157 3157 3157 3157 3158 3159 3159 3159 3158 3158 3157 3157 3157 3157 3157 3157 3157 3158 3158 3157 3157 3157 3157 3157 3156 3156 3157 3157 3156 3157 3157 3157 3157 3157 3157 3157 3157 3157 3157 3157 3156 3156 3156 3156 3156 3155 3155 3155 3155 3155 3154 3154 3154 3154 3153 3153 3153 3152 3152 3152 3151 3151 3151 3151 3150 3150 3150 3149 3149 3149 3149 3149 3149 3148 3148 3148 3148 3148 3148 3148 3148 3148 3148 3147 3147 3147 3147 3146 3146 3146 3146 3145 3145 3145 3144 3144 3144
3154 3154 3155 3155 3155 3155 3155 3155 3155 3155 3156 3156 3157 3157 3156 3156 3155 3155 3155 3155 3155 3155 3155 3156 3156 3155 3155 3155 3155 3155 3154 3154 3154 3154 3154 3154 3154 3154 3155 3155 3155 3155 3155 3155 3155 3155 3154 3154 3154 3154 3154 3154 3154 3154 3154 3153 3153 3153 3152 3152 3152 3151 3151 3151 3150 3150 3150 3150 3150 3149 3149 3149 3148 3148 3148 3148 3147 3147 3147 3147 3147 3147 3147 3146 3146 3146 3146 3146 3146 3146 3146 3145 3145 3145 3145 3145 3144 3144 3144 3144 3143 3143 3143
3153 3153 3153 3153 3154 3154 3154 3154 3154 3154 3154 3154 3155 3155 3154 3154 3154 3153 3153 3153 3153 3153 3154 3154 3154 3154 3153 3153 3153 3153 3153 3153 3153 3153 3153 3152 3152 3152 3153 3153 3153 3153 3153 3153 3153 3153 3153 3153 3153 3152 3152 3152 3152 3152 3152 3152 3152 3151 3151 3151 3150 3150 3149 3149 3149 3149 3149 3148 3148 3148 3148 3147 3147 3147 3146 3146 3146 3146 3145 3145 3145 3145 3145 3145 3145 3145 3145 3144 3144 3144 3144 3144 3144 3144 3144 3143 3143 3143 3143 3142 3142 3141 3141
3151 3151 3151 3152 3152 3152 3152 3152 3152 3152 3152 3153 3153 3153 3153 3152 3152 3152 3151 3151 3151 3151 3152 3152 3152 3152 3151 3151 3151 3151 3151 3151 3150 3150 3150 3150 3150 3150 3150 3151 3151 3151 3151 3151 3151 3151 3151 3151 3151 3151 3150 3150 3150 3150 3150 3150 3150 3150 3149 3149 3149 3149 3148 3148 3147 3147 3147 3147 3146 3146 3146 3146 3145 3145 3145 3145 3144 3144 3144 3144 3144 3144 3144 3144 3143 3143 3143 3143 3143 3143 3143 3143 3142 3142 3142 3142 3141 3141 3141 3141 3140 3140 3139
3149 3150 3150 3150 3150 3150 3150 3149 3149 3150 3150 3151 3151 3151 3150 3150 3150 3150 3149 3149 3149 3149 3150 3150 3150 3150 3149 3149 3149 3149 3149 3149 3149 3149 3149 3148 3148 3148 3148 3148 3149 3149 3149 3149 3149 3149 3149 3149 3149 3149 3149 3149 3149 3149 3149 3149 3149 3148 3148 3148 3147 3147 3147 3146 3146 3145 3145 3145 3145 3144 3144 3144 3144 3144 3143 3143 3143 3143 3143 3142 3142 3142 3142 3142 3142 3142 3142 3141 3141 3141 3141 3141 3141 3140 3140 3140 3140 3139 3139 3139 3139 3138 3138
3148 3148 3148 3148 3148 3148 3148 3148 3148 3148 3149 3149 3149 3149 3149 3148 3148 3148 3148 3147 3147 3148 3148 3148 3148 3148 3148 3147 3146 3146 3146 3146 3146 3146 3146 3146 3145 3145 3146 3146 3146 3146 3146 3147 3147 3147 3147 3147 3147 3147 3147 3147 3147 3147 3147 3147 3147 3146 3146 3146 3146 3145 3145 3145 3144 3144 3144 3143 3143 3143 3143 3142 3142 3142 3142 3142 3141 3141 3141 3141 3141 3140 3140 3140 3140 3140 3140 3140 3139 3139 3139 3139 3139 3139 3139 3138 3138 3138 3138 3137 3137 3137 3136
3146 3146 3146 3146 3146 3146 3146 3146 3146 3146 3146 3147 3148 3147 3147 3146 3146 3145 3145 3145 3145 3146 3146 3145 3145 3146 3146 3145 3144 3144 3144 3144 3144 3144 3144 3144 3143 3143 3144 3144 3144 3144 3144 3144 3145 3145 3145 3145 3145 3145 3145 3145 3145 3145 3144 3144 3145 3144 3144 3144 3144 3144 3144 3143 3143 3142 3142 3142 3141 3141 3141 3141 3140 3140 3140 3140 3140 3139 3139 3139 3139 3139 3139 3138 3138 3138 3138 3138 3138 3138 3137 3137 3137 3137 3137 3136 3136 3136 3136 3135 3135 3135 3134
3144 3144 3144 3144 3144 3144 3144 3144 3144 3144 3144 3145 3146 3145 3145 3144 3144 3143 3143 3143 3144 3144 3144 3144 3144 3144 3144 3143 3143 3142 3142 3142 3142 3142 3142 3142 3141 3141 3141 3142 3142 3142 3142 3142 3142 3143 3143 3143 3143 3143 3143 3143 3143 3143 3143 3143 3143 3143 3142 3142 3142 3142 3142 3141 3141 3141 3140 3140 3140 3139 3139 3139 3139 3139 3138 3138 3138 3138 3138 3137 3137 3137 3137 3136 3136 3136 3136 3136 3136 3135 3135 3135 3135 3135 3134 3134 3134 3134 3134 3133 3133 3133 3132
3142 3142 3142 3143 3143 3143 3142 3142 3142 3141 3142 3143 3144 3144 3143 3142 3142 3141 3141 3141 3141 3141 3142 3141 3142 3142 3142 3141 3141 3140 3140 3139 3139 3140 3140 3140 3139 3139 3139 3139 3139 3139 3139 3140 3140 3140 3140 3141 3141 3141 3141 3141 3141 3141 3141 3140 3140 3140 3140 3140 3140 3140 3139 3139 3139 3139 3139 3138 3138 3138 3137 3137 3137 3137 3136 3136 3136 3136 3135 3135 3135 3135 3135 3134 3134 3134 3134 3134 3134 3133 3133 3133 3133 3133 3132 3132 3132 3131 3131 3131 3131 3130 3130
3140 3140 3140 3140 3140 3140 3140 3140 3139 3139 3139 3140 3141 3141 3141 3140 3139 3139 3139 3139 3139 3139 3139 3139 3139 3140 3140 3139 3138 3138 3138 3137 3137 3138 3138 3138 3138 3137 3136 3136 3136 3137 3137 3137 3138 3138 3138 3138 3139 3139 3139 3139 3139 3139 3139 3139 3138 3138 3138 3138 3138 3138 3138 3137 3137 3137 3137 3136 3136 3136 3135 3135 3135 3135 3134 3134 3134 3134 3134 3133 3133 3133 3133 3133 3132 3132 3132 3132 3132 3131 3131 3131 3131 3130 3130 3130 3129 3129 3129 3129 3128 3128 3128
3139 3139 3139 3139 3139 3138 3138 3138 3137 3137 3137 3137 3138 3139 3139 3139 3138 3137 3137 3136 3136 3136 3136 3137 3137 3138 3138 3137 3136 3135 3135 3136 3136 3136 3136 3135 3135 3134 3134 3134 3134 3134 3135 3135 3135 3135 3136 3136 3136 3136 3137 3137 3137 3137 3137 3136 3136 3136 3136 3136 3136 3135 3135 3135 3135 3135 3135 3134 3134 3134 3134 3134 3133 3133 3133 3132 3132 3132 3132 3131 3131 3131 3130 3130 3130 3130 3130 3130 3129 3129 3129 3129 3129 3128 3128 3128 3127 3127 3127 3126 3126 3126 3125
3137 3137 3137 3137 3136 3136 3136 3136 3135 3135 3134 3134 3135 3136 3136 3136 3136 3135 3134 3134 3134 3134 3134 3134 3134 3135 3135 3135 3134 3133 3133 3133 3134 3134 3134 3133 3132 3132 3131 3132 3132 3133 3133 3132 3132 3132 3133 3134 3134 3134 3134 3135 3135 3135 3135 3134 3134 3134 3134 3134 3134 3133 3133 3133 3133 3133 3133 3132 3132 3132 3132 3132 3131 3131 3131 3130 3130 3130 3129 3129 3129 3129 3128 3128 3128 3128 3128 3128 3127 3127 3127 3127 3127 3126 3126 3125 3125 3124 3124 3124 3124 3123 3123
3134 3134 3135 3134 3134 3134 3133 3134 3133 3133 3132 3132 3132 3133 3134 3134 3134 3133 3132 3132 3132 3131 3131 3131 3131 3132 3133 3133 3132 3131 3130 3131 3131 3132 3131 3130 3130 3129 3129 3129 3130 3130 3129 3129 3129 3130 3131 3131 3132 3132 3132 3133 3132 3132 3132 3132 3132 3131 3131 3131 3131 3131 3131 3131 3131 3131 3130 3130 3129 3129 3130 3129 3129 3129 3129 3128 3128 3128 3128 3127 3127 3126 3126 3126 3126 3125 3125 3125 3125 3125 3124 3124 3124 3124 3124 3123 3123 3122 3122 3122 3121 3121 3121
3132 3132 3132 3132 3132 3131 3131 3131 3131 3130 3130 3129 3129 3130 3131 3132 3132 3131 3130 3129 3129 3129 3129 3128 3129 3129 3130 3130 3129 3129 3128 3128 3129 3129 3129 3128 3128 3127 3127 3127 3127 3127 3127 3127 3128 3129 3129 3127 3128 3129 3129 3130 3130 3130 3130 3129 3129 3129 3129 3129 3129 3129 3129 3129 3129 3129 3128 3128 3127 3127 3128 3128 3127 3127 3126 3126 3126 3126 3125 3125 3125 3124 3124 3124 3123 3123 3123 3123 3122 3122 3122 3123 3122 3122 3121 3120 3120 3120 3120 3119 3119 3119 3119
3129 3129 3129 3130 3130 3129 3129 3128 3128 3127 3127 3127 3127 3127 3128 3129 3129 3129 3128 3127 3127 3127 3126 3126 3126 3126 3127 3127 3127 3126 3125 3125 3126 3126 3127 3126 3126 3125 3124 3124 3124 3125 3125 3125 3126 3126 3125 3124 3125 3126 3126 3128 3128 3128 3127 3127 3127 3127 3127 3127 3127 3126 3126 3126 3126 3126 3126 3125 3125 3125 3125 3125 3125 3125 3124 3124 3124 3124 3123 3123 3123 3122 3122 3121 3121 3120 3120 3120 3120 3120 3120 3120 3120 3120 3119 3118 3118 3118 3118 3117 3117 3117 3116
3127 3127 3127 3127 3127 3127 3126 3125 3125 3124 3124 3124 3124 3124 3125 3126 3127 3127 3126 3125 3125 3124 3124 3124 3123 3124 3124 3124 3124 3123 3123 3122 3123 3124 3124 3124 3124 3123 3122 3122 3122 3123 3123 3124 3124 3124 3122 3122 3123 3124 3124 3124 3125 3126 3125 3125 3125 3124 3124 3124 3124 3124 3124 3124 3124 3124 3123 3123 3123 3123 3123 3123 3123 3123 3122 3122 3121 3121 3121 3121 3120 3120 3119 3119 3119 3118 3118 3118 3117 3117 3117 3118 3118 3118 3117 3116 3116 3115 3115 3115 3115 3114 3114
3124 3124 3124 3124 3124 3124 3123 3123 3122 3122 3121 3121 3121 3121 3122 3123 3124 3124 3124 3123 3123 3122 3122 3121 3120 3120 3121 3121 3121 3121 3120 3120 3120 3120 3121 3121 3121 3120 3120 3120 3120 3120 3120 3121 3121 3121 3120 3120 3121 3121 3121 3120 3121 3123 3123 3123 3123 3122 3122 3121 3121 3121 3121 3121 3121 3121 3121 3120 3120 3120 3120 3121 3121 3120 3120 3119 3119 3119 3119 3118 3118 3118 3117 3117 3116 3116 3115 3115 3115 3115 3115 3115 3115 3115 3115 3114 3113 3113 3113 3113 3112 3112 3112
3121 3122 3122 3121 3121 3121 3121 3120 3119 3119 3118 3118 3118 3118 3119 3120 3121 3121 3121 3120 3120 3119 3119 3118 3118 3118 3118 3118 3118 3118 3118 3118 3117 3116 3117 3118 3118 3119 3119 3118 3117 3117 3118 3118 3118 3118 3118 3118 3119 3119 3119 3118 3118 3119 3120 3121 3120 3120 3119 3119 3119 3119 3119 3119 3119 3118 3118 3118 3118 3118 3118 3118 3118 3118 3118 3117 3117 3116 3116 3116 3116 3115 3115 3114 3114 3113 3113 3113 3113 3112 3112 3113 3113 3113 3112 3111 3110 3110 3110 3110 3109 3109 3109
3119 3119 3119 3119 3119 3119 3118 3117 3117 3116 3115 3115 3114 3114 3116 3117 3118 3118 3118 3118 3117 3117 3116 3115 3115 3114 3114 3114 3115 3115 3115 3114 3113 3112 3114 3115 3116 3116 3116 3115 3114 3114 3115 3115 3115 3116 3116 3116 3116 3116 3116 3116 3116 3116 3116 3117 3117 3117 3116 3116 3116 3116 3116 3116 3116 3115 3115 3115 3115 3115 3115 3115 3115 3115 3115 3114 3114 3114 3114 3114 3113 3113 3112 3112 3111 3111 3110 3110 3110 3109 3109 3110 3110 3110 3109 3108 3108 3107 3107 3107 3107 3106 3106